Showing default

LEMUR 2 ANDIS, 42838

Orbit data source: Space-Track

LEMUR 2 ANDIS, 42838 is a payload satellite owned by Spire (US) in SSO that was launched on Fri, 14 Jul 2017 UTC via a SOYUZ-2-1A launch vehicle from the Tyuratam Missile And Space Complex (TTMTR). Payload-class satellites include a variety of spacecraft equipped with specific instruments for various scientific and technological missions. These include communications satellites like Starlink; space stations such as the ISS; scientific satellites like the Hubble; Earth observation satellites from companies like Planet Labs, Umbra, and HawkEye 360; GPS; miniature CubeSats for education and research; and military/defense satellites.

Loading next visibility...
Identifier
42838, 2017-042P
Orbit
SSO
Country
Flag of USUS
Related business
Manufacturer
Spire/Glasgow
Mission
Operational Commercial Com/MetRO
Bus & Motor
CUBESAT 3U, Unknown motor
Mass
4 kg wet, 4 kg dry
Launch date (UTC)
2017-07-14 (8 years ago)
Launch vehicle
SOYUZ-2-1A
Launch site
Tyuratam Missile And Space Complex (TTMTR)
Object type
Payload
Rocket body
Debris
Shape & HBR
Box, 0.5 m
Radar Cross Section
0.093 m², Small (<0.1 m²)

Expand to show TLE details & history
Last TLE update: 12 hours ago

TLE from 12 hours ago
0 LEMUR 2 ANDIS
1 42838U 17042P   25287.27482760  .00020577  00000-0  87331-3 0  9995
2 42838  97.3646 105.5169 0011298 154.9446 205.2342 15.23060480450874
Epoch: 2025-10-14T06:35Z
TLE epoch observation values (Epoch: 2025-10-14T06:35:45.104Z)
Latitude
0.00003°
Longitude
-16.48664°
Altitude
506.74 km
Speed
7.607 km/s
True Right ascension
07h 02m 04s
True Declination
0° 00' 00"
Sunlit
Object was in daylight at epoch
Visualization orbit readout
Latitude
Unknown
Longitude
Unknown
Altitude
Unknown
Speed
Unknown
Apparent Right ascension
Unknown
Apparent Declination
Unknown
Sunlit
N/A
Visualization observer readout
Local Sidereal Time
13:36:24
Azimuth
Unknown
Elevation
Unknown
Doppler factor
Unknown
Orbital elements
Apogee altitude
501.339 km
Perigee altitude
485.812 km
Semi-major axis
6,871.713 km
Eccentricity
0.00113
Inclination
97.3646°
RAAN
105.5169°
Arg. of periapsis
154.9446°
True anomaly
205.17908°
Mean anomaly
205.2342°
Eccentric anomaly
205.20663°
Mean motion
3.81018 °/min
Orbital period
94.48 mins
BSTAR
0.00087331
Loading maneuver chart data...
Computing Atmospheric mass density...
Loading historical data...
Loading historical data...
Loading historical data...
Loading historical data...
Loading historical data...
Loading historical data...
Loading historical data...

Documentation

Showing up to 5 results
|